Location: New Greens
(51.7702°N, 0.3379°W)
Time: 02:28:59
(UTC+00:00)

Envisat - Pass Details

Date: 26 January 2019
Orbit: 764 x 766 km, 98.2° (Epoch: 16 February)

Event Time Altitude Azimuth Distance (km) Brightness Sun altitude
Rises 17:40:54 0° 139° (SE) 3,225 6.0 -9.6°
Reaches altitude 10° 17:43:19 10° 132° (SE) 2,303 5.2 -10.0°
Maximum altitude 17:47:59 39° 65° (ENE) 1,146 3.4 -10.7°
Drops below altitude 10° 17:52:41 10° 358° (N) 2,316 5.4 -11.4°
Sets 17:55:07 0° 351° (N) 3,247 6.2 -11.7°
